PLEIADES NEO 3

Last updated on Mon Sep 21 2026 00:02:46 GMT+0000 (Coordinated Universal Time)

1 48268U 21034A 26263.60899331 -.00000212 00000+0 -20295-4 0 9994 2 48268 97.8949 337.0039 0001411 85.2100 274.9274 14.81672656291782
UTC large
Height (km)
Speed (km/s)
/
Latitude / Longitude
Inclination (degrees)
Orbital Period (minutes)
Azimuth
Elevation
Range (km)
Doppler Factor

Next 0 passes for location: London (51.5072 / 0.1276)

No passes found over London.
PLEIADES NEO 3